Sacramento, CA

3:57 PM PDT on March 24, 2017 (GMT -0700)
Sacramento Executive

Weather History for KSAC - April, 2014

Change the Weather History Date:

Saturday, April 5, 2014

  Actual Average Record
Temperature  
Mean Temperature 56 °F -  
Max Temperature 70 °F 68 °F 85 °F (1957)
Min Temperature 41 °F 45 °F 35 °F (2003)
Degree Days  
Heating Degree Days 9    
Cooling Degree Days 0    
Growing Degree Days 6 (Base 50)    
Moisture  
Dew Point 46 °F    
Average Humidity 68    
Maximum Humidity 100    
Minimum Humidity 36    
Precipitation  
Precipitation 0.00 in 0.05 in 1.01 in (1969)
Month to date precipitation 1.38 0.25  
Year to date precipitation 7.44 10.11  
Since 1 July precipitation 9.34  
Sea Level Pressure  
Sea Level Pressure 30.10 in    
Wind  
Wind Speed 2 mph (NW)    
Max Wind Speed 15 mph    
Max Gust Speed 22 mph    
Visibility 10 miles    
Events      
T = Trace of Precipitation, MM = Missing Value Source: NWS Daily Summary

Daily Weather History Graph

Daily Weather History Graph

Search for Another Location

Airport or City:

Trip Planner

Search our weather history database for the weather conditions in past years. The results will help you decide how hot, cold, wet, or windy it might be!

Date:

Astronomy

Apr. 05, 2014 Rise Set
Actual Time 6:44 AM PDT 7:33 PM PDT
Civil Twilight 6:17 AM PDT 8:00 PM PDT
Nautical Twilight 5:45 AM PDT 8:32 PM PDT
Astronomical Twilight 5:13 AM PDT 9:04 PM PDT
Moon 10:59 AM PDT (4/5) 12:44 AM PDT (4/5)
Length of Visible Light 13h 42m
Length of Day
12h 48m
Waxing Crescent, 35% of the Moon is Illuminated
Apr 5
Waxing Crescent
Apr 7
First Quarter
Apr 15
Full
Apr 22
Last Quarter
Apr 28
New

Hourly Weather History & Observations

Time (PDT) Temp. Dew Point Humidity Pressure Visibility Wind Dir Wind Speed Gust Speed Precip Events Conditions
12:53 AM 46.0 °F 45.0 °F 96% 30.04 in 10.0 mi Calm Calm - N/A   Clear
1:53 AM 46.0 °F 44.1 °F 93% 30.05 in 10.0 mi Calm Calm - N/A   Clear
2:53 AM 45.0 °F 44.1 °F 97% 30.05 in 10.0 mi Calm Calm - N/A   Clear
3:53 AM 45.0 °F 44.1 °F 97% 30.05 in 10.0 mi Calm Calm - N/A   Clear
4:53 AM 43.0 °F 42.1 °F 97% 30.04 in 10.0 mi Calm Calm - N/A   Clear
5:53 AM 43.0 °F 42.1 °F 97% 30.06 in 10.0 mi Calm Calm - N/A   Clear
6:53 AM 42.1 °F 41.0 °F 96% 30.08 in 8.0 mi Calm Calm - N/A   Clear
7:53 AM 46.0 °F 44.1 °F 93% 30.10 in 10.0 mi Calm Calm - N/A   Clear
8:53 AM 50.0 °F 46.0 °F 86% 30.12 in 10.0 mi North 3.5 mph - N/A   Clear
9:53 AM 55.0 °F 46.9 °F 74% 30.14 in 10.0 mi NNW 4.6 mph - N/A   Clear
10:53 AM 57.9 °F 48.0 °F 70% 30.14 in 10.0 mi NNW 8.1 mph - N/A   Clear
11:53 AM 61.0 °F 48.0 °F 62% 30.14 in 10.0 mi NNW 8.1 mph - N/A   Clear
12:53 PM 64.0 °F 50.0 °F 60% 30.13 in 10.0 mi NW 8.1 mph - N/A   Clear
1:53 PM 66.0 °F 48.0 °F 52% 30.12 in 10.0 mi WNW 8.1 mph - N/A   Clear
2:53 PM 68.0 °F 45.0 °F 43% 30.10 in 10.0 mi WNW 9.2 mph 21.9 mph N/A   Clear
3:53 PM 68.0 °F 43.0 °F 40% 30.09 in 10.0 mi NW 8.1 mph - N/A   Clear
4:53 PM 70.0 °F 41.0 °F 35% 30.09 in 10.0 mi West 9.2 mph - N/A   Clear
5:53 PM 69.1 °F 42.1 °F 38% 30.09 in 10.0 mi NW 6.9 mph - N/A   Clear
6:53 PM 68.0 °F 42.1 °F 39% 30.10 in 10.0 mi WNW 4.6 mph - N/A   Clear
7:53 PM 61.0 °F 51.1 °F 70% 30.11 in 10.0 mi Calm Calm - N/A   Clear
8:53 PM 57.9 °F 52.0 °F 81% 30.13 in 10.0 mi SSW 3.5 mph - N/A   Clear
9:53 PM 55.9 °F 50.0 °F 80% 30.14 in 10.0 mi SW 3.5 mph - N/A   Clear
10:53 PM 53.1 °F 48.9 °F 86% 30.14 in 10.0 mi Calm Calm - N/A   Clear
11:53 PM 51.1 °F 48.9 °F 92% 30.16 in 10.0 mi Calm Calm - N/A   Clear